Regional Weather Roundup
Issued by NWS

Home | Current Version | Previous Version | Graphics & Text | Print | Product List | Glossary On
Versions: 1 2 3 4 5 6 7 8 9 10 11 12 13 14 15 16 17 18 19 20 21 22 23 24 25 26 27 28 29 30 31 32 33 34 35 36 37 38 39 40 41 42 43 44 45 46 47 48 49 50
000
ASUS43 KIND 040059
RWRIN

WEATHER ROUNDUP FOR INDIANA
NATIONAL WEATHER SERVICE INDIANAPOLIS IN
800 PM EST SAT DEC 03 2016

NOTE: "FAIR" INDICATES FEW OR NO CLOUDS BELOW 12,000 FEET WITH NO
SIGNIFICANT WEATHER AND/OR OBSTRUCTIONS TO VISIBILITY.

* - STATION DOES NOT REPORT WEATHER SUCH AS PRECIPITATION OR FOG.

+ - STATION NOT QUALITY CONTROLLED BY THE NATIONAL WEATHER SERVICE.
    USE DATA WITH CAUTION...ESPECIALLY DEWPOINT AND RELATIVE
    HUMIDITY OBSERVATIONS.

INZ001>003-010>013-019-020-040200-
NORTHWEST INDIANA

CITY           SKY/WX    TMP DP  RH WIND       PRES   REMARKS
GARY /AIRPORT/ PTCLDY    30  27  86 CALM      30.33R

$$

LMZ046-743>745-040200-
SOUTHERN LAKE MICHIGAN

STATION/POSITION TIME  TEMP    WIND        PRES    WAVE
                       AIR SEA DIR/SP/G            HT
                 (UTC) (F)     (DEG/KT/KT) (MB)    (FT)
BURNS HARBOR     0040   34     220/  6/  7 1027.1R
MICHIGAN CITY    0030   35     250/ 10/ 12   N/A

$$

INZ004-005-014>016-021>024-040200-
NORTH CENTRAL INDIANA

CITY           SKY/WX    TMP DP  RH WIND       PRES   REMARKS
GOSHEN         CLOUDY    34  25  69 SW7       30.30R WCI  28
SOUTH BEND     CLOUDY    33  26  75 SW6       30.31R WCI  28

$$

INZ006>009-017-018-025>027-040200-
NORTHEAST INDIANA

CITY           SKY/WX    TMP DP  RH WIND       PRES   REMARKS
ANGOLA *+      CLOUDY    36  27  69 CALM      30.28F
FORT WAYNE     CLOUDY    33  24  69 CALM      30.31S
KENDALLVILLE + CLOUDY    34  26  74 CALM      30.30R

$$

INZ028-029-035-036-043>045-051>053-040200-
WEST CENTRAL INDIANA

CITY           SKY/WX    TMP DP  RH WIND       PRES   REMARKS
CRAWFORDSVL +  CLOUDY    32  27  83 N3        30.31F
GREENCASTLE +  CLOUDY    34  32  93 N5        30.31S WCI  30
LAFAYETTE      CLOUDY    34  27  75 NE5       30.32S WCI  30
TERRE HAUTE    CLOUDY    34  28  79 CALM      30.32S

$$

INZ030>032-037>040-046>048-054>057-064-065-040200-
CENTRAL INDIANA

CITY           SKY/WX    TMP DP  RH WIND       PRES   REMARKS
COLUMBUS       MOCLDY    32  32 100 E6        30.31F WCI  26
INDIANAPOLIS   CLOUDY    33  27  78 N5        30.31S WCI  29
-EAGLE CREEK   CLOUDY    34  26  72 N5        30.30F WCI  30
KOKOMO +       CLOUDY    34  26  72 W3        30.32S
SHELBYVILLE    CLOUDY    35  27  72 NE6       30.30F WCI  30

$$

INZ033-034-041-042-049-050-058-059-040200-
EAST CENTRAL INDIANA

CITY           SKY/WX    TMP DP  RH WIND       PRES   REMARKS
MUNCIE         CLOUDY    35  28  75 W3        30.31S

$$

INZ060-061-067>069-081>083-085>088-040200-
SOUTHWEST INDIANA

CITY           SKY/WX    TMP DP  RH WIND       PRES   REMARKS
EVANSVILLE     CLOUDY    41  31  67 NE6       30.30F
HUNTINGBURG *+ CLOUDY    39  30  70 NE3       30.31S

$$

INZ062-063-066-070>080-084-089>092-040200-
SOUTH CENTRAL AND SOUTHEAST INDIANA

CITY           SKY/WX    TMP DP  RH WIND       PRES   REMARKS
BLOOMINGTON    PTCLDY    35  28  75 N3        30.30S
MADISON *+     CLOUDY    36  30  80 NE5       30.31S
SEYMOUR +      CLOUDY    37  30  75 E5        30.31S

$$





USA.gov is the U.S. government's official web portal to all federal, state and local government web resources and services.